Location: Prairie View Elementary School
(39.8322°N, 99.5698°W)
Time: 19:53:13
(UTC+00:00)

Cosmos 1862 Rocket - Pass Details

Date: 08 December 2019
Orbit: 604 x 633 km, 82.5° (Epoch: 18 January)

Event Time Altitude Azimuth Distance (km) Brightness Sun altitude
Rises 23:59:14 0° 177° (S) 2,848 7.2 -8.8°
Reaches altitude 10° 00:01:27 10° 174° (S) 1,952 6.3 -9.2°
Maximum altitude 00:05:42 60° 94° (E) 703 3.6 -9.9°
Drops below altitude 10° 00:10:01 10° 15° (NNE) 1,983 5.8 -10.7°
Sets 00:12:17 0° 12° (NNE) 2,897 6.7 -11.1°
